Location: Dampvalley
(47.9094°N, 6.1967°E)
Time: 15:26:49
(UTC+00:00)

NOSS 3-4 (A) - Pass Details

Date: 05 March 2021
Orbit: 866 x 1346 km, 63.4° (Epoch: 13 April)

Event Time Altitude Azimuth Distance (km) Brightness Sun altitude
Rises 05:21:45 0° 213° (SSW) 3,438 6.0 -8.6°
Reaches altitude 10° 05:24:10 10° 212° (SSW) 2,517 5.4 -8.2°
Maximum altitude 05:29:56 78° 127° (SE) 932 3.6 -7.2°
Drops below altitude 10° 05:36:13 10° 43° (NE) 2,723 6.5 -6.2°
Sets 05:38:55 0° 42° (NE) 3,740 7.2 -5.7°
